Orbital Elements at Epoch 2459200.5 (2020-Dec-17.0) TDB
Reference: JPL 19 (heliocentric ecliptic J2000)
Element | Value | Uncertainty (1-sigma) | Units |
e | .2271868044171866 | 1.5258e-07 | |
a | 2.540724709767137 | 1.548e-08 | au |
q | 1.963505582051357 | 3.9716e-07 | au |
i | 2.956073525132814 | 3.6129e-06 | deg |
node | 252.4001871252894 | 0.00013958 | deg |
peri | 255.2737380613326 | 0.00013958 | deg |
M | 242.5437698977272 | 9.3825e-06 | deg |
tp | 2459683.123428640470 (2022-Apr-13.62342864) | 4.1264e-05 | TDB |
period | 1479.227063215671 4.05 | 1.3519e-05 3.701e-08 | d yr |
n | .2433703445212806 | 2.2243e-09 | deg/d |
Q | 3.117943837482917 | 1.8997e-08 | au |
|
| | Orbit Determination Parameters
Additional Information
|